Regional Weather Roundup
Issued by NWS

Home | Current Version | Previous Version | Text Only | Print | Product List | Glossary Off
Versions: 1 2 3 4 5 6 7 8 9 10 11 12 13 14 15 16 17 18 19 20 21 22 23 24 25 26 27 28 29 30 31 32 33 34 35 36 37 38 39 40 41 42 43 44 45 46 47 48 49 50

000
ASUS45 KBOU 222310
RWRCO

WEATHER ROUNDUP FOR COLORADO
NATIONAL WEATHER SERVICE DENVER/BOULDER CO
400 PM MST THU FEB 22 2018

NOTE: "FAIR" INDICATES FEW OR NO CLOUDS BELOW 12000 FEET WITH NO
SIGNIFICANT WEATHER AND/OR OBSTRUCTIONS TO VISIBILITY.

COZ001>005-013-030-031-230000-
...NORTHWEST COLORADO...

CITY           SKY/WX    TMP DP  RH WIND       PRES   REMARKS
CRAIG          LGT SNOW  24  18  77 CALM      29.93R
HAYDEN         FLURRIES  22  17  81 S3        29.92R
MEEKER         LGT SNOW  27  17  66 W6        29.90R WCI  20
RANGELY        CLOUDY    26  21  83 CALM      29.96S
RABBIT EARS PA LGT SNOW  12   9  85 W10G21    29.79R VSB 3/4 WCI  -1
STEAMBOAT SPGS CLOUDY    22  19  89 CALM      29.90R VSB 3/4
WALDEN         CLOUDY    25   5  42 W10G16    29.85R WCI  15
$$

COZ006>008-011-230000-
...WEST CENTRAL VALLEYS...

CITY           SKY/WX    TMP DP  RH WIND       PRES   REMARKS
GRAND JUNCTION LGT SNOW  29  29 100 N7        29.97S VSB 1   WCI  22
MONTROSE       PTSUNNY   36  11  35 SW15G25   29.96S
EAGLE          FLURRIES  28  16  60 W16       29.92S WCI  16
RIFLE          CLOUDY    31  20  63 W3        29.94S
DELTA          PTSUNNY   39  25  57 S7        29.96F
NUCLA          PTSUNNY   34  10  37 SW10      29.98F WCI  26
$$

COZ017>023-064>068-230000-
...SOUTHWEST COLORADO...

CITY           SKY/WX    TMP DP  RH WIND       PRES   REMARKS
DURANGO        FAIR      33  10  38 W15G25    29.98S WCI  23
CORTEZ         PTSUNNY   38   2  22 SW10      29.97F
PAGOSA SPRINGS PTSUNNY   28  13  53 S7        29.99R WCI  21
TELLURIDE      CLOUDY    21   7  55 SE7       29.92R WCI  12
WOLF CREEK PAS CLOUDY     5   3  92 S25G33    29.88F WCI -18
$$

COZ009-010-012-014-032>034-037-058>063-230000-
...CENTRAL COLORADO...

CITY           SKY/WX    TMP DP  RH WIND       PRES   REMARKS
ASPEN          PTSUNNY   28   9  44 N7        29.85S WCI  21
BUENA VISTA    CLOUDY    29  11  45 W18G26    29.84R WCI  17
COPPER MTN     LGT SNOW  12   7  79 W8        29.78R VSB 3/4 WCI   1
BERTHOUD PASS  SNOW       5  -6  61 MISG      29.75R VSB<1/4
COTTONWOOD PAS LGT SNOW  25  14  63 W12G21    29.82R WCI  14
GUNNISON       CLOUDY    28  10  46 SW13      29.89S WCI  17
GRANBY         CLOUDY    23  14  67 CALM      29.86R
KREMMLING      FAIR      34  12  40 W12G22    29.87R WCI  25
LEADVILLE      PTSUNNY   20   7  57 N7        29.80R WCI  11
MONARCH PASS   SNOW       9   5  85 SW26G33   29.90R VSB 1/2 WCI -13
SALIDA         FAIR      33  13  43 W12G20    29.94R WCI  25
SUNLIGHT       LGT SNOW  12   9  85 SW9       29.86R WCI   0
WILKERSON PASS LGT SNOW  16  12  86 SW12G18   29.81S VSB 3/4 WCI   3
$$

COZ069>075-230000-
...SAN LUIS VALLEY/SANGRE DE CRISTO MOUNTAINS...

CITY           SKY/WX    TMP DP  RH WIND       PRES   REMARKS
ALAMOSA        FAIR      32  10  40 SW25G33   29.92S WCI  19
DEL NORTE      FAIR      29   7  40 SW20G29   29.92R WCI  16
LA VETA PASS   CLOUDY    19   9  63 S26G51    29.95R WCI   1
SAGUACHE       FAIR      32   3  29 W18       29.87R WCI  20
$$

COZ035-036-038>040-230000-
...NORTHERN COLORADO FRONT RANGE...

CITY           SKY/WX    TMP DP  RH WIND       PRES   REMARKS
DENVER INTL AP CLOUDY    23  15  71 N10       29.92R HAZE    WCI  12
AURORA         PTSUNNY   24  17  75 NE5       29.92R FOG     WCI  18
FRONT RANGE AP CLOUDY    27  18  69 N5        29.92S WCI  21
ERIE MUNI ARPT CLOUDY    23  15  70 CALM      30.01R
BOULDER MUN AP PTSUNNY   27  14  59 CALM      29.95R
CENTENNIAL     SNOW      23  20  88 N5        29.91R VSB 1/2 WCI  17
BROOMFIELD     PTSUNNY   23  19  86 CALM      29.94R
FORT COLLINS   FAIR      22  15  75 S3        29.97R
LONGMONT       CLOUDY    30  14  51 CALM      29.98R
$$

COZ041-046-047-076>085-087-088-230000-
...PIKES PEAK/PALMER DIVIDE AND SOUTHERN FOOTHILLS...

CITY           SKY/WX    TMP DP  RH WIND       PRES   REMARKS
COLO. SPRINGS  PTSUNNY   34  19  54 CALM      29.86R
A. F. ACADEMY  CLOUDY    32  18  55 SE6       29.84R WCI  27
SCHRIEVER AFB  NOT AVBL
CHEYENNE MTN   PTSUNNY   28  20  69 SE6       29.79R WCI  22
ELLICOTT         N/A    N/A N/A N/A S15       29.84R
FALCON         CLOUDY    35  17  48 SW5       29.86R WCI  31
FORT CARSON    FAIR      36  20  52 E3        29.85R
LIMON          FAIR      35  14  42 VRB3      29.89R
MONUMENT HILL  SNOW      23  21  93 N8        29.87R VSB 1/2 WCI  14
CANON CITY     SUNNY     41  19  42 E7        29.85R
WALSENBURG     NOT AVBL
TRINIDAD       FAIR      46   2  16 SW28G38   29.87R
$$

COZ042>045-048>051-090-091-230000-
...NORTHEAST COLORADO...

CITY           SKY/WX    TMP DP  RH WIND       PRES   REMARKS
GREELEY ARPT   FAIR      26  17  68 W3        29.98R
AKRON          CLOUDY    29  17  61 CALM      29.94R
BURLINGTON     FAIR      36  20  52 NW7       29.95S
WRAY           CLOUDY    32  18  55 MISG      30.00F
YUMA           NOT AVBL
STERLING       CLOUDY    28  18  64 CALM      29.98S
HOLYOKE        PTSUNNY   34  19  55 SE8       30.00S WCI  27
FORT MORGAN    FAIR      31  14  48 N5        29.96S WCI  27
$$

COZ086-089-092>099-230000-
...SOUTHEAST COLORADO...

CITY           SKY/WX    TMP DP  RH WIND       PRES   REMARKS
PUEBLO         FAIR      42  17  36 SE8       29.86S
LA JUNTA       FAIR      43  20  39 N9        29.89S
LAMAR          FAIR      49  15  25 E18       29.87S
SPRINGFIELD      N/A     54  19  25 SW25G35   29.86S
$$



USA.gov is the U.S. government's official web portal to all federal, state and local government web resources and services.